Hourly Weather Toluca

Today, 2 October, Friday

Time Temperature Precipitation Wind Pressure Humidity
00:00 +6°C° 0 mm 1 mps 549 mmHg 53%
01:00 +5°C° 0 mm 1 mps 548 mmHg 50%
02:00 +5°C° 0 mm 1 mps 548 mmHg 48%
03:00 +5°C° 0 mm 1 mps 548 mmHg 48%
04:00 +3°C° 0 mm 2 mps 548 mmHg 47%
05:00 +3°C° 0 mm 2 mps 548 mmHg 47%
06:00 +5°C° 0 mm 2 mps 549 mmHg 45%
07:00 +8°C° 0 mm 2 mps 551 mmHg 42%
08:00 +10°C° 0 mm 2 mps 553 mmHg 40%
09:00 +13°C° 0 mm 2 mps 553 mmHg 36%
10:00 +15°C° 0 mm 2 mps 554 mmHg 33%
11:00 +17°C° 0 mm 3 mps 555 mmHg 29%
12:00 +18°C° 0 mm 3 mps 554 mmHg 31%
13:00 +18°C° 0 mm 3 mps 554 mmHg 33%
14:00 +18°C° 0 mm 3 mps 553 mmHg 35%
15:00 +16°C° 0 mm 2 mps 552 mmHg 44%
16:00 +14°C° 0 mm 2 mps 551 mmHg 54%
17:00 +12°C° 0 mm 2 mps 550 mmHg 63%
18:00 +9°C° 0 mm 2 mps 550 mmHg 69%
19:00 +7°C° 0 mm 2 mps 550 mmHg 75%
20:00 +6°C° 0 mm 2 mps 549 mmHg 81%
21:00 +5°C° 0 mm 2 mps 549 mmHg 84%
22:00 +5°C° 0 mm 2 mps 549 mmHg 86%
23:00 +5°C° 0 mm 1 mps 549 mmHg 89%

Tomorrow, 3 October, Saturday

Time Temperature Precipitation Wind Pressure Humidity
00:00 +5°C° 0 mm 1 mps 548 mmHg 90%
01:00 +5°C° 0 mm 1 mps 548 mmHg 90%
02:00 +5°C° 0 mm 1 mps 548 mmHg 90%
03:00 +5°C° 0 mm 1 mps 548 mmHg 91%
04:00 +5°C° 0 mm 1 mps 548 mmHg 91%
05:00 +5°C° 0 mm 1 mps 548 mmHg 91%
06:00 +7°C° 0 mm 1 mps 549 mmHg 82%
07:00 +10°C° 0 mm 1 mps 551 mmHg 74%
08:00 +12°C° 0 mm 1 mps 553 mmHg 66%
09:00 +15°C° 0 mm 1 mps 553 mmHg 59%
10:00 +18°C° 0 mm 1 mps 554 mmHg 51%
11:00 +21°C° 0 mm 1 mps 555 mmHg 44%
12:00 +20°C° 0 mm 1 mps 554 mmHg 47%
13:00 +20°C° 0 mm 1 mps 553 mmHg 49%
14:00 +19°C° 0 mm 1 mps 553 mmHg 52%
15:00 +18°C° 0.2 mm 1 mps 552 mmHg 62%
16:00 +15°C° 0.2 mm 1 mps 551 mmHg 73%
17:00 +13°C° 0.2 mm 1 mps 550 mmHg 83%
18:00 +12°C° 0.1 mm 1 mps 550 mmHg 86%
19:00 +12°C° 0.1 mm 1 mps 550 mmHg 88%
20:00 +11°C° 0.1 mm 1 mps 551 mmHg 91%
21:00 +10°C° 0 mm 1 mps 551 mmHg 92%
22:00 +10°C° 0 mm 1 mps 550 mmHg 93%
23:00 +9°C° 0 mm 0 mps 550 mmHg 94%

Day after tomorrow, 4 October, Sunday

Time Temperature Precipitation Wind Pressure Humidity
00:00 +9°C° 0 mm 1 mps 550 mmHg 94%
01:00 +9°C° 0 mm 1 mps 550 mmHg 94%
02:00 +9°C° 0 mm 1 mps 549 mmHg 95%
03:00 +8°C° 0 mm 1 mps 549 mmHg 95%
04:00 +8°C° 0 mm 1 mps 549 mmHg 95%
05:00 +8°C° 0 mm 1 mps 549 mmHg 95%
06:00 +10°C° 0 mm 1 mps 550 mmHg 90%
07:00 +11°C° 0 mm 1 mps 552 mmHg 84%
08:00 +13°C° 0 mm 1 mps 553 mmHg 79%
09:00 +15°C° 0.1 mm 1 mps 554 mmHg 71%
10:00 +18°C° 0.1 mm 1 mps 554 mmHg 63%
11:00 +19°C° 0.1 mm 2 mps 555 mmHg 55%
12:00 +18°C° 0.4 mm 2 mps 554 mmHg 58%
13:00 +17°C° 0.4 mm 2 mps 553 mmHg 61%
14:00 +17°C° 0.4 mm 2 mps 552 mmHg 65%
15:00 +16°C° 0.2 mm 2 mps 552 mmHg 67%
16:00 +15°C° 0.2 mm 2 mps 551 mmHg 69%
17:00 +13°C° 0.2 mm 2 mps 551 mmHg 71%
18:00 +12°C° 0 mm 2 mps 551 mmHg 73%
19:00 +10°C° 0 mm 2 mps 551 mmHg 75%
20:00 +9°C° 0 mm 1 mps 551 mmHg 77%
21:00 +9°C° 0 mm 1 mps 550 mmHg 78%
22:00 +8°C° 0 mm 1 mps 550 mmHg 79%
23:00 +7°C° 0 mm 1 mps 550 mmHg 80%

5 October, Monday

Time Temperature Precipitation Wind Pressure Humidity
00:00 +7°C° 0 mm 1 mps 550 mmHg 79%
01:00 +6°C° 0 mm 1 mps 549 mmHg 77%
02:00 +6°C° 0 mm 1 mps 549 mmHg 76%
03:00 +6°C° 0 mm 1 mps 549 mmHg 72%
04:00 +5°C° 0 mm 1 mps 549 mmHg 69%
05:00 +5°C° 0 mm 1 mps 549 mmHg 65%
06:00 +7°C° 0 mm 1 mps 550 mmHg 57%
07:00 +10°C° 0 mm 1 mps 551 mmHg 49%
08:00 +12°C° 0 mm 2 mps 553 mmHg 41%
09:00 +14°C° 0 mm 2 mps 554 mmHg 38%
10:00 +16°C° 0 mm 2 mps 555 mmHg 35%
11:00 +18°C° 0 mm 2 mps 555 mmHg 31%
12:00 +18°C° 0 mm 2 mps 555 mmHg 33%
13:00 +18°C° 0 mm 2 mps 554 mmHg 35%
14:00 +18°C° 0 mm 2 mps 553 mmHg 36%
15:00 +17°C° 0 mm 2 mps 553 mmHg 45%
16:00 +15°C° 0 mm 2 mps 552 mmHg 54%
17:00 +13°C° 0 mm 1 mps 551 mmHg 63%
18:00 +11°C° 0 mm 1 mps 551 mmHg 67%
19:00 +10°C° 0 mm 1 mps 550 mmHg 71%
20:00 +8°C° 0 mm 1 mps 550 mmHg 74%
21:00 +8°C° 0 mm 1 mps 550 mmHg 76%
22:00 +7°C° 0 mm 1 mps 550 mmHg 77%
23:00 +7°C° 0 mm 1 mps 550 mmHg 79%

6 October, Tuesday

Time Temperature Precipitation Wind Pressure Humidity
00:00 +7°C° 0 mm 1 mps 549 mmHg 79%
01:00 +7°C° 0 mm 1 mps 549 mmHg 80%
02:00 +6°C° 0 mm 1 mps 548 mmHg 80%
03:00 +6°C° 0 mm 1 mps 548 mmHg 80%
04:00 +6°C° 0 mm 1 mps 548 mmHg 80%
05:00 +6°C° 0 mm 1 mps 549 mmHg 80%
06:00 +9°C° 0 mm 1 mps 550 mmHg 72%
07:00 +12°C° 0 mm 1 mps 552 mmHg 63%
08:00 +15°C° 0 mm 1 mps 554 mmHg 55%
09:00 +18°C° 0 mm 1 mps 554 mmHg 51%
10:00 +20°C° 0 mm 1 mps 555 mmHg 46%
11:00 +22°C° 0 mm 1 mps 556 mmHg 42%
12:00 +21°C° 0.2 mm 1 mps 555 mmHg 45%
13:00 +21°C° 0.2 mm 1 mps 554 mmHg 48%
14:00 +21°C° 0.2 mm 1 mps 553 mmHg 51%
15:00 +19°C° 0.3 mm 1 mps 552 mmHg 59%
16:00 +16°C° 0.3 mm 1 mps 551 mmHg 68%
17:00 +14°C° 0.3 mm 1 mps 551 mmHg 76%
18:00 +13°C° 0.1 mm 1 mps 550 mmHg 76%
19:00 +11°C° 0.1 mm 1 mps 550 mmHg 75%
20:00 +9°C° 0.1 mm 1 mps 550 mmHg 74%
21:00 +9°C° 0 mm 1 mps 549 mmHg 74%
22:00 +9°C° 0 mm 1 mps 549 mmHg 74%
23:00 +8°C° 0 mm 1 mps 549 mmHg 74%

7 October, Wednesday

Time Temperature Precipitation Wind Pressure Humidity
00:00 +8°C° 0 mm 1 mps 549 mmHg 74%
01:00 +8°C° 0 mm 1 mps 548 mmHg 75%
02:00 +8°C° 0 mm 1 mps 548 mmHg 75%
03:00 +7°C° 0 mm 1 mps 548 mmHg 76%
04:00 +7°C° 0 mm 1 mps 548 mmHg 77%
05:00 +7°C° 0 mm 1 mps 548 mmHg 78%
06:00 +10°C° 0 mm 1 mps 550 mmHg 72%
07:00 +11°C° 0 mm 0 mps 551 mmHg 66%
08:00 +14°C° 0 mm 0 mps 553 mmHg 60%
09:00 +18°C° 0 mm 1 mps 554 mmHg 55%
10:00 +20°C° 0 mm 1 mps 555 mmHg 49%
11:00 +22°C° 0 mm 1 mps 556 mmHg 43%
12:00 +22°C° 0.2 mm 1 mps 555 mmHg 45%
13:00 +22°C° 0.2 mm 1 mps 554 mmHg 47%
14:00 +21°C° 0.2 mm 1 mps 553 mmHg 48%
15:00 +19°C° 0.2 mm 1 mps 552 mmHg 56%
16:00 +18°C° 0.2 mm 1 mps 552 mmHg 65%
17:00 +15°C° 0.2 mm 1 mps 551 mmHg 73%
18:00 +13°C° 0.1 mm 1 mps 551 mmHg 73%
19:00 +11°C° 0.1 mm 1 mps 550 mmHg 73%
20:00 +10°C° 0.1 mm 1 mps 550 mmHg 73%
21:00 +9°C° 0 mm 1 mps 550 mmHg 74%
22:00 +9°C° 0 mm 1 mps 550 mmHg 75%
23:00 +8°C° 0 mm 1 mps 550 mmHg 76%
Show more

We Need Your Consent

Meteoprog and our Service Providers may store and access personal data such as cookies, device identifiers or other similar technologies on your device and process such data to personalise content and ads, as well as provide social media features and to analyse the traffic.

  • Store and/or access information on your device

    Cookies, device identifiers or other information can be stored or accessed on your device for the purposes indicated above.

  • Personalised ads and content, ad and content measurement, audience insights, and products development

    Ads and content can be personalised based on a profile. More data can be added to better personalise ads and content. Ad and content performance can be measured. Insights about the audience who saw the ads and content can be derived. Such data can be used to develop or improve user’s experience, systems and software.

By clicking ‘I Agree’ you will allow the use of indicated cookies, device identifiers, web beacons or other similar technologies. Your settings can be changed in the browser on your device.

For certain purposes, legitimate interests may be relied on, rather than consent. You can read more about this in our Privacy and Cookie Policy.